Year,Month,Day,Hour,Minute,Value (Times are PST for temperature in C)
2006,07,26,00,00,15.90
2006,07,26,00,01,15.90
2006,07,26,00,02,15.90
2006,07,26,00,03,15.90
2006,07,26,00,04,15.80
2006,07,26,00,05,15.80
2006,07,26,00,06,15.80
2006,07,26,00,07,15.80
2006,07,26,00,08,15.80
2006,07,26,00,09,15.80
2006,07,26,00,10,15.80
2006,07,26,00,11,15.80
2006,07,26,00,12,15.80
2006,07,26,00,13,15.80
2006,07,26,00,14,15.80
2006,07,26,00,15,15.80
2006,07,26,00,16,15.80
2006,07,26,00,17,15.80
2006,07,26,00,18,15.80
2006,07,26,00,19,15.80
2006,07,26,00,20,15.80
2006,07,26,00,21,15.80
2006,07,26,00,22,15.80
2006,07,26,00,23,15.80
2006,07,26,00,24,15.80
2006,07,26,00,25,15.80
2006,07,26,00,26,15.80
2006,07,26,00,27,15.80
2006,07,26,00,28,15.80
2006,07,26,00,29,15.80
2006,07,26,00,30,15.80
2006,07,26,00,31,15.80
2006,07,26,00,32,15.80
2006,07,26,00,33,15.80
2006,07,26,00,34,15.80
2006,07,26,00,35,15.80
2006,07,26,00,36,15.80
2006,07,26,00,37,15.70
2006,07,26,00,38,15.70
2006,07,26,00,39,15.70
2006,07,26,00,40,15.70
2006,07,26,00,41,15.60
2006,07,26,00,42,15.60
2006,07,26,00,43,15.60
2006,07,26,00,44,15.50
2006,07,26,00,45,15.50
2006,07,26,00,46,15.50
2006,07,26,00,47,15.50
2006,07,26,00,48,15.40
2006,07,26,00,49,15.40
2006,07,26,00,50,15.40
2006,07,26,00,51,15.40
2006,07,26,00,52,15.30
2006,07,26,00,53,15.30
2006,07,26,00,54,15.30
2006,07,26,00,55,15.30
2006,07,26,00,56,15.30
2006,07,26,00,57,15.30
2006,07,26,00,58,15.30
2006,07,26,00,59,15.30
2006,07,26,01,00,15.30
2006,07,26,01,01,15.20
2006,07,26,01,02,15.20
2006,07,26,01,03,15.20
2006,07,26,01,04,15.20
2006,07,26,01,05,15.20
2006,07,26,01,06,15.20
2006,07,26,01,07,15.10
2006,07,26,01,08,15.10
2006,07,26,01,09,15.10
2006,07,26,01,10,15.10
2006,07,26,01,11,15.10
2006,07,26,01,12,15.10
2006,07,26,01,13,15.10
2006,07,26,01,14,15.10
2006,07,26,01,15,15.10
2006,07,26,01,16,15.10
2006,07,26,01,17,15.10
2006,07,26,01,18,15.10
2006,07,26,01,19,15.00
2006,07,26,01,20,15.00
2006,07,26,01,21,15.00
2006,07,26,01,22,15.00
2006,07,26,01,23,15.00
2006,07,26,01,24,15.00
2006,07,26,01,25,15.00
2006,07,26,01,26,15.00
2006,07,26,01,27,15.00
2006,07,26,01,28,15.00
2006,07,26,01,29,14.90
2006,07,26,01,30,14.90
2006,07,26,01,31,14.90
2006,07,26,01,32,14.90
2006,07,26,01,33,14.90
2006,07,26,01,34,14.90
2006,07,26,01,35,14.90
2006,07,26,01,36,14.90
2006,07,26,01,37,14.90
2006,07,26,01,38,14.90
2006,07,26,01,39,14.90
2006,07,26,01,40,14.90
2006,07,26,01,41,14.90
2006,07,26,01,42,14.90
2006,07,26,01,43,14.90
2006,07,26,01,44,14.90
2006,07,26,01,45,14.90
2006,07,26,01,46,14.90
2006,07,26,01,47,14.90
2006,07,26,01,48,14.90
2006,07,26,01,49,14.90
2006,07,26,01,50,14.90
2006,07,26,01,51,14.90
2006,07,26,01,52,14.80
2006,07,26,01,53,14.80
2006,07,26,01,54,14.70
2006,07,26,01,55,14.70
2006,07,26,01,56,14.60
2006,07,26,01,57,14.50
2006,07,26,01,58,14.50
2006,07,26,01,59,14.40
2006,07,26,02,00,14.30
2006,07,26,02,01,14.30
2006,07,26,02,02,14.20
2006,07,26,02,03,14.20
2006,07,26,02,04,14.10
2006,07,26,02,05,14.00
2006,07,26,02,06,14.00
2006,07,26,02,07,13.90
2006,07,26,02,08,13.90
2006,07,26,02,09,13.80
2006,07,26,02,10,13.80
2006,07,26,02,11,13.70
2006,07,26,02,12,13.70
2006,07,26,02,13,13.70
2006,07,26,02,14,13.70
2006,07,26,02,15,13.70
2006,07,26,02,16,13.70
2006,07,26,02,17,13.60
2006,07,26,02,18,13.60
2006,07,26,02,19,13.60
2006,07,26,02,20,13.50
2006,07,26,02,21,13.50
2006,07,26,02,22,13.50
2006,07,26,02,23,13.40
2006,07,26,02,24,13.40
2006,07,26,02,25,13.40
2006,07,26,02,26,13.40
2006,07,26,02,27,13.40
2006,07,26,02,28,13.40
2006,07,26,02,29,13.40
2006,07,26,02,30,13.40
2006,07,26,02,31,13.40
2006,07,26,02,32,13.50
2006,07,26,02,33,13.40
2006,07,26,02,34,13.40
2006,07,26,02,35,13.40
2006,07,26,02,36,13.40
2006,07,26,02,37,13.40
2006,07,26,02,38,13.40
2006,07,26,02,39,13.40
2006,07,26,02,40,13.40
2006,07,26,02,41,13.30
2006,07,26,02,42,13.30
2006,07,26,02,43,13.30
2006,07,26,02,44,13.30
2006,07,26,02,45,13.30
2006,07,26,02,46,13.30
2006,07,26,02,47,13.30
2006,07,26,02,48,13.30
2006,07,26,02,49,13.30
2006,07,26,02,50,13.30
2006,07,26,02,51,13.30
2006,07,26,02,52,13.30
2006,07,26,02,53,13.40
2006,07,26,02,54,13.40
2006,07,26,02,55,13.40
2006,07,26,02,56,13.50
2006,07,26,02,57,13.50
2006,07,26,02,58,13.60
2006,07,26,02,59,13.60
2006,07,26,03,00,13.70
2006,07,26,03,01,13.80
2006,07,26,03,02,13.80
2006,07,26,03,03,13.80
2006,07,26,03,04,13.90
2006,07,26,03,05,13.90
2006,07,26,03,06,14.00
2006,07,26,03,07,14.00
2006,07,26,03,08,14.10
2006,07,26,03,09,14.10
2006,07,26,03,10,14.20
2006,07,26,03,11,14.20
2006,07,26,03,12,14.20
2006,07,26,03,13,14.20
2006,07,26,03,14,14.20
2006,07,26,03,15,14.20
2006,07,26,03,16,14.20
2006,07,26,03,17,14.20
2006,07,26,03,18,14.20
2006,07,26,03,19,14.20
2006,07,26,03,20,14.20
2006,07,26,03,21,14.20
2006,07,26,03,22,14.20
2006,07,26,03,23,14.20
2006,07,26,03,24,14.20
2006,07,26,03,25,14.20
2006,07,26,03,26,14.10
2006,07,26,03,27,14.00
2006,07,26,03,28,13.90
2006,07,26,03,29,13.80
2006,07,26,03,30,13.70
2006,07,26,03,31,13.70
2006,07,26,03,32,13.70
2006,07,26,03,33,13.60
2006,07,26,03,34,13.50
2006,07,26,03,35,13.40
2006,07,26,03,36,13.30
2006,07,26,03,37,13.30
2006,07,26,03,38,13.20
2006,07,26,03,39,13.20
2006,07,26,03,40,13.10
2006,07,26,03,41,13.10
2006,07,26,03,42,13.00
2006,07,26,03,43,13.00
2006,07,26,03,44,12.90
2006,07,26,03,45,12.90
2006,07,26,03,46,12.90
2006,07,26,03,47,12.90
2006,07,26,03,48,12.80
2006,07,26,03,49,12.80
2006,07,26,03,50,12.80
2006,07,26,03,51,12.80
2006,07,26,03,52,12.80
2006,07,26,03,53,12.80
2006,07,26,03,54,12.80
2006,07,26,03,55,12.80
2006,07,26,03,56,12.80
2006,07,26,03,57,12.80
2006,07,26,03,58,12.80
2006,07,26,03,59,12.80
2006,07,26,04,00,12.80
2006,07,26,04,01,12.80
2006,07,26,04,02,12.80
2006,07,26,04,03,12.80
2006,07,26,04,04,12.70
2006,07,26,04,05,12.70
2006,07,26,04,06,12.70
2006,07,26,04,07,12.70
2006,07,26,04,08,12.70
2006,07,26,04,09,12.70
2006,07,26,04,10,12.70
2006,07,26,04,11,12.70
2006,07,26,04,12,12.70
2006,07,26,04,13,12.70
2006,07,26,04,14,12.70
2006,07,26,04,15,12.70
2006,07,26,04,16,12.70
2006,07,26,04,17,12.70
2006,07,26,04,18,12.70
2006,07,26,04,19,12.70
2006,07,26,04,20,12.70
2006,07,26,04,21,12.70
2006,07,26,04,22,12.70
2006,07,26,04,23,12.70
2006,07,26,04,24,12.70
2006,07,26,04,25,12.70
2006,07,26,04,26,12.70
2006,07,26,04,27,12.70
2006,07,26,04,28,12.70
2006,07,26,04,29,12.70
2006,07,26,04,30,12.70
2006,07,26,04,31,12.70
2006,07,26,04,32,12.70
2006,07,26,04,33,12.70
2006,07,26,04,34,12.70
2006,07,26,04,35,12.60
2006,07,26,04,36,12.60
2006,07,26,04,37,12.60
2006,07,26,04,38,12.60
2006,07,26,04,39,12.60
2006,07,26,04,40,12.60
2006,07,26,04,41,12.60
2006,07,26,04,42,12.60
2006,07,26,04,43,12.60
2006,07,26,04,44,12.50
2006,07,26,04,45,12.50
2006,07,26,04,46,12.50
2006,07,26,04,47,12.50
2006,07,26,04,48,12.50
2006,07,26,04,49,12.50
2006,07,26,04,50,12.50
2006,07,26,04,51,12.50
2006,07,26,04,52,12.50
2006,07,26,04,53,12.50
2006,07,26,04,54,12.40
2006,07,26,04,55,12.40
2006,07,26,04,56,12.40
2006,07,26,04,57,12.30
2006,07,26,04,58,12.30
2006,07,26,04,59,12.30
2006,07,26,05,00,12.30
2006,07,26,05,01,12.30
2006,07,26,05,02,12.30
2006,07,26,05,03,12.30
2006,07,26,05,04,12.30
2006,07,26,05,05,12.30
2006,07,26,05,06,12.30
2006,07,26,05,07,12.30
2006,07,26,05,08,12.20
2006,07,26,05,09,12.20
2006,07,26,05,10,12.20
2006,07,26,05,11,12.20
2006,07,26,05,12,12.20
2006,07,26,05,13,12.20
2006,07,26,05,14,12.10
2006,07,26,05,15,12.10
2006,07,26,05,16,12.10
2006,07,26,05,17,12.10
2006,07,26,05,18,12.10
2006,07,26,05,19,12.10
2006,07,26,05,20,12.10
2006,07,26,05,21,12.10
2006,07,26,05,22,12.10
2006,07,26,05,23,12.10
2006,07,26,05,24,12.10
2006,07,26,05,25,12.10
2006,07,26,05,26,12.10
2006,07,26,05,27,12.10
2006,07,26,05,28,12.10
2006,07,26,05,29,12.00
2006,07,26,05,30,12.00
2006,07,26,05,31,12.00
2006,07,26,05,32,12.00
2006,07,26,05,33,12.00
2006,07,26,05,34,12.10
2006,07,26,05,35,12.10
2006,07,26,05,36,12.10
2006,07,26,05,37,12.10
2006,07,26,05,38,12.00
2006,07,26,05,39,12.00
2006,07,26,05,40,12.00
2006,07,26,05,41,12.00
2006,07,26,05,42,12.00
2006,07,26,05,43,12.00
2006,07,26,05,44,12.00
2006,07,26,05,45,12.00
2006,07,26,05,46,12.00
2006,07,26,05,47,12.00
2006,07,26,05,48,12.10
2006,07,26,05,49,12.10
2006,07,26,05,50,12.10
2006,07,26,05,51,12.10
2006,07,26,05,52,12.10
2006,07,26,05,53,12.10
2006,07,26,05,54,12.10
2006,07,26,05,55,12.10
2006,07,26,05,56,12.10
2006,07,26,05,57,12.10
2006,07,26,05,58,12.10
2006,07,26,05,59,12.10
2006,07,26,06,00,12.10
2006,07,26,06,01,12.10
2006,07,26,06,02,12.10
2006,07,26,06,03,12.20
2006,07,26,06,04,12.20
2006,07,26,06,05,12.20
2006,07,26,06,06,12.30
2006,07,26,06,07,12.30
2006,07,26,06,08,12.30
2006,07,26,06,09,12.30
2006,07,26,06,10,12.30
2006,07,26,06,11,12.30
2006,07,26,06,12,12.40
2006,07,26,06,13,12.40
2006,07,26,06,14,12.40
2006,07,26,06,15,12.50
2006,07,26,06,16,12.50
2006,07,26,06,17,12.50
2006,07,26,06,18,12.60
2006,07,26,06,19,12.60
2006,07,26,06,20,12.60
2006,07,26,06,21,12.60
2006,07,26,06,22,12.60
2006,07,26,06,23,12.70
2006,07,26,06,24,12.70
2006,07,26,06,25,12.70
2006,07,26,06,26,12.80
2006,07,26,06,27,12.80
2006,07,26,06,28,12.80
2006,07,26,06,29,12.80
2006,07,26,06,30,12.80
2006,07,26,06,31,12.90
2006,07,26,06,32,12.90
2006,07,26,06,33,13.00
2006,07,26,06,34,13.00
2006,07,26,06,35,13.00
2006,07,26,06,36,13.00
2006,07,26,06,37,12.90
2006,07,26,06,38,13.00
2006,07,26,06,39,13.00
2006,07,26,06,40,13.00
2006,07,26,06,41,13.10
2006,07,26,06,42,13.10
2006,07,26,06,43,13.20
2006,07,26,06,44,13.30
2006,07,26,06,45,13.30
2006,07,26,06,46,13.40
2006,07,26,06,47,13.50
2006,07,26,06,48,13.60
2006,07,26,06,49,13.60
2006,07,26,06,50,13.70
2006,07,26,06,51,13.70
2006,07,26,06,52,13.70
2006,07,26,06,53,13.70
2006,07,26,06,54,13.70
2006,07,26,06,55,13.70
2006,07,26,06,56,13.80
2006,07,26,06,57,13.90
2006,07,26,06,58,13.90
2006,07,26,06,59,14.00
2006,07,26,07,00,14.00
2006,07,26,07,01,14.10
2006,07,26,07,02,14.20
2006,07,26,07,03,14.20
2006,07,26,07,04,14.20
2006,07,26,07,05,14.30
2006,07,26,07,06,14.40
2006,07,26,07,07,14.40
2006,07,26,07,08,14.50
2006,07,26,07,09,14.60
2006,07,26,07,10,14.60
2006,07,26,07,11,14.70
2006,07,26,07,12,14.70
2006,07,26,07,13,14.70
2006,07,26,07,14,14.70
2006,07,26,07,15,14.70
2006,07,26,07,16,14.80
2006,07,26,07,17,14.80
2006,07,26,07,18,14.80
2006,07,26,07,19,14.90
2006,07,26,07,20,15.00
2006,07,26,07,21,15.00
2006,07,26,07,22,15.00
2006,07,26,07,23,15.10
2006,07,26,07,24,15.10
2006,07,26,07,25,15.20
2006,07,26,07,26,15.20
2006,07,26,07,27,15.10
2006,07,26,07,28,15.00
2006,07,26,07,29,15.00
2006,07,26,07,30,15.00
2006,07,26,07,31,15.00
2006,07,26,07,32,15.00
2006,07,26,07,33,15.00
2006,07,26,07,34,15.10
2006,07,26,07,35,15.10
2006,07,26,07,36,15.20
2006,07,26,07,37,15.20
2006,07,26,07,38,15.20
2006,07,26,07,39,15.30
2006,07,26,07,40,15.30
2006,07,26,07,41,15.30
2006,07,26,07,42,15.30
2006,07,26,07,43,15.30
2006,07,26,07,44,15.30
2006,07,26,07,45,15.30
2006,07,26,07,46,15.30
2006,07,26,07,47,15.30
2006,07,26,07,48,15.30
2006,07,26,07,49,15.30
2006,07,26,07,50,15.30
2006,07,26,07,51,15.40
2006,07,26,07,52,15.50
2006,07,26,07,53,15.60
2006,07,26,07,54,15.70
2006,07,26,07,55,15.70
2006,07,26,07,56,15.70
2006,07,26,07,57,15.80
2006,07,26,07,58,15.80
2006,07,26,07,59,15.90
2006,07,26,08,00,16.00
2006,07,26,08,01,16.10
2006,07,26,08,02,16.10
2006,07,26,08,03,16.00
2006,07,26,08,04,15.90
2006,07,26,08,05,15.90
2006,07,26,08,06,15.90
2006,07,26,08,07,15.90
2006,07,26,08,08,15.90
2006,07,26,08,09,15.90
2006,07,26,08,10,15.90
2006,07,26,08,11,16.00
2006,07,26,08,12,16.10
2006,07,26,08,13,16.20
2006,07,26,08,14,16.30
2006,07,26,08,15,16.40
2006,07,26,08,16,16.50
2006,07,26,08,17,16.70
2006,07,26,08,18,16.70
2006,07,26,08,19,16.80
2006,07,26,08,20,16.90
2006,07,26,08,21,17.00
2006,07,26,08,22,17.00
2006,07,26,08,23,17.10
2006,07,26,08,24,17.20
2006,07,26,08,25,17.30
2006,07,26,08,26,17.30
2006,07,26,08,27,17.50
2006,07,26,08,28,17.50
2006,07,26,08,29,17.60
2006,07,26,08,30,17.60
2006,07,26,08,31,17.50
2006,07,26,08,32,17.30
2006,07,26,08,33,17.10
2006,07,26,08,34,16.90
2006,07,26,08,35,16.70
2006,07,26,08,36,16.70
2006,07,26,08,37,16.70
2006,07,26,08,38,16.70
2006,07,26,08,39,16.60
2006,07,26,08,40,16.60
2006,07,26,08,41,16.60
2006,07,26,08,42,16.70
2006,07,26,08,43,16.60
2006,07,26,08,44,16.60
2006,07,26,08,45,16.70
2006,07,26,08,46,16.70
2006,07,26,08,47,16.70
2006,07,26,08,48,16.70
2006,07,26,08,49,16.70
2006,07,26,08,50,16.80
2006,07,26,08,51,16.80
2006,07,26,08,52,16.80
2006,07,26,08,53,16.80
2006,07,26,08,54,16.80
2006,07,26,08,55,16.80
2006,07,26,08,56,16.90
2006,07,26,08,57,16.90
2006,07,26,08,58,16.90
2006,07,26,08,59,16.90
2006,07,26,09,00,16.90
2006,07,26,09,01,17.00
2006,07,26,09,02,17.00
2006,07,26,09,03,17.00
2006,07,26,09,04,17.00
2006,07,26,09,05,17.00
2006,07,26,09,06,16.90
2006,07,26,09,07,16.90
2006,07,26,09,08,16.80
2006,07,26,09,09,16.90
2006,07,26,09,10,16.80
2006,07,26,09,11,16.80
2006,07,26,09,12,16.90
2006,07,26,09,13,16.90
2006,07,26,09,14,17.00
2006,07,26,09,15,17.10
2006,07,26,09,16,17.20
2006,07,26,09,17,17.30
2006,07,26,09,18,17.30
2006,07,26,09,19,17.40
2006,07,26,09,20,17.50
2006,07,26,09,21,17.60
2006,07,26,09,22,17.80
2006,07,26,09,23,17.90
2006,07,26,09,24,17.90
2006,07,26,09,25,17.90
2006,07,26,09,26,17.90
2006,07,26,09,27,17.90
2006,07,26,09,28,17.90
2006,07,26,09,29,17.90
2006,07,26,09,30,17.90
2006,07,26,09,31,17.90
2006,07,26,09,32,18.10
2006,07,26,09,33,18.10
2006,07,26,09,34,18.40
2006,07,26,09,35,18.50
2006,07,26,09,36,18.60
2006,07,26,09,37,18.70
2006,07,26,09,38,18.80
2006,07,26,09,39,18.90
2006,07,26,09,40,18.90
2006,07,26,09,41,18.90
2006,07,26,09,42,19.00
2006,07,26,09,43,19.10
2006,07,26,09,44,19.20
2006,07,26,09,45,19.30
2006,07,26,09,46,19.40
2006,07,26,09,47,19.60
2006,07,26,09,48,19.70
2006,07,26,09,49,19.70
2006,07,26,09,50,19.70
2006,07,26,09,51,19.70
2006,07,26,09,52,19.80
2006,07,26,09,53,19.80
2006,07,26,09,54,19.90
2006,07,26,09,55,20.00
2006,07,26,09,56,20.10
2006,07,26,09,57,20.10
2006,07,26,09,58,19.90
2006,07,26,09,59,19.80
2006,07,26,10,00,19.60
2006,07,26,10,01,19.40
2006,07,26,10,02,19.10
2006,07,26,10,03,18.90
2006,07,26,10,04,18.70
2006,07,26,10,05,18.60
2006,07,26,10,06,18.50
2006,07,26,10,07,18.40
2006,07,26,10,08,18.30
2006,07,26,10,09,18.20
2006,07,26,10,10,18.10
2006,07,26,10,11,18.10
2006,07,26,10,12,18.10
2006,07,26,10,13,18.10
2006,07,26,10,14,18.10
2006,07,26,10,15,18.20
2006,07,26,10,16,18.20
2006,07,26,10,17,18.40
2006,07,26,10,18,18.50
2006,07,26,10,19,18.70
2006,07,26,10,20,18.80
2006,07,26,10,21,18.90
2006,07,26,10,22,19.10
2006,07,26,10,23,19.40
2006,07,26,10,24,19.60
2006,07,26,10,25,19.70
2006,07,26,10,26,19.80
2006,07,26,10,27,19.90
2006,07,26,10,28,20.10
2006,07,26,10,29,20.20
2006,07,26,10,30,20.30
2006,07,26,10,31,20.40
2006,07,26,10,32,20.60
2006,07,26,10,33,20.70
2006,07,26,10,34,20.70
2006,07,26,10,35,20.80
2006,07,26,10,36,20.90
2006,07,26,10,37,20.90
2006,07,26,10,38,21.00
2006,07,26,10,39,20.90
2006,07,26,10,40,20.80
2006,07,26,10,41,20.70
2006,07,26,10,42,20.50
2006,07,26,10,43,20.30
2006,07,26,10,44,20.10
2006,07,26,10,45,19.80
2006,07,26,10,46,19.60
2006,07,26,10,47,19.40
2006,07,26,10,48,19.40
2006,07,26,10,49,19.30
2006,07,26,10,50,19.30
2006,07,26,10,51,19.30
2006,07,26,10,52,19.30
2006,07,26,10,53,19.30
2006,07,26,10,54,19.40
2006,07,26,10,55,19.50
2006,07,26,10,56,19.60
2006,07,26,10,57,19.70
2006,07,26,10,58,19.70
2006,07,26,10,59,19.80
2006,07,26,11,00,19.90
2006,07,26,11,01,20.00
2006,07,26,11,02,20.20
2006,07,26,11,03,20.30
2006,07,26,11,04,20.50
2006,07,26,11,05,20.60
2006,07,26,11,06,20.70
2006,07,26,11,07,20.90
2006,07,26,11,08,20.90
2006,07,26,11,09,20.90
2006,07,26,11,10,21.00
2006,07,26,11,11,21.10
2006,07,26,11,12,21.10
2006,07,26,11,13,21.10
2006,07,26,11,14,21.10
2006,07,26,11,15,21.10
2006,07,26,11,16,21.20
2006,07,26,11,17,21.20
2006,07,26,11,18,21.30
2006,07,26,11,19,21.20
2006,07,26,11,20,21.10
2006,07,26,11,21,21.00
2006,07,26,11,22,20.90
2006,07,26,11,23,20.80
2006,07,26,11,24,20.70
2006,07,26,11,25,20.80
2006,07,26,11,26,20.80
2006,07,26,11,27,20.70
2006,07,26,11,28,20.60
2006,07,26,11,29,20.60
2006,07,26,11,30,20.60
2006,07,26,11,31,20.60
2006,07,26,11,32,20.60
2006,07,26,11,33,20.50
2006,07,26,11,34,20.50
2006,07,26,11,35,20.60
2006,07,26,11,36,20.70
2006,07,26,11,37,20.80
2006,07,26,11,38,20.80
2006,07,26,11,39,20.90
2006,07,26,11,40,21.00
2006,07,26,11,41,21.00
2006,07,26,11,42,21.10
2006,07,26,11,43,21.10
2006,07,26,11,44,21.20
2006,07,26,11,45,21.30
2006,07,26,11,46,21.40
2006,07,26,11,47,21.50
2006,07,26,11,48,21.60
2006,07,26,11,49,21.80
2006,07,26,11,50,21.80
2006,07,26,11,51,22.00
2006,07,26,11,52,22.20
2006,07,26,11,53,22.30
2006,07,26,11,54,22.40
2006,07,26,11,55,22.50
2006,07,26,11,56,22.60
2006,07,26,11,57,22.70
2006,07,26,11,58,22.60
2006,07,26,11,59,22.30
2006,07,26,12,00,22.10
2006,07,26,12,01,22.00
2006,07,26,12,02,22.00
2006,07,26,12,03,22.00
2006,07,26,12,04,22.00
2006,07,26,12,05,21.90
2006,07,26,12,06,21.90
2006,07,26,12,07,22.00
2006,07,26,12,08,22.10
2006,07,26,12,09,22.20
2006,07,26,12,10,22.20
2006,07,26,12,11,22.10
2006,07,26,12,12,22.00
2006,07,26,12,13,21.90
2006,07,26,12,14,21.80
2006,07,26,12,15,21.90
2006,07,26,12,16,21.90
2006,07,26,12,17,21.90
2006,07,26,12,18,21.90
2006,07,26,12,19,21.80
2006,07,26,12,20,21.90
2006,07,26,12,21,21.90
2006,07,26,12,22,21.90
2006,07,26,12,23,21.70
2006,07,26,12,24,21.70
2006,07,26,12,25,21.80
2006,07,26,12,26,21.90
2006,07,26,12,27,21.90
2006,07,26,12,28,22.00
2006,07,26,12,29,22.00
2006,07,26,12,30,22.10
2006,07,26,12,31,22.10
2006,07,26,12,32,22.20
2006,07,26,12,33,22.20
2006,07,26,12,34,22.20
2006,07,26,12,35,22.30
2006,07,26,12,36,22.30
2006,07,26,12,37,22.20
2006,07,26,12,38,22.10
2006,07,26,12,39,22.00
2006,07,26,12,40,22.10
2006,07,26,12,41,22.30
2006,07,26,12,42,22.50
2006,07,26,12,43,22.80
2006,07,26,12,44,22.90
2006,07,26,12,45,23.10
2006,07,26,12,46,23.30
2006,07,26,12,47,23.40
2006,07,26,12,48,23.50
2006,07,26,12,49,23.40
2006,07,26,12,50,23.40
2006,07,26,12,51,23.50
2006,07,26,12,52,23.60
2006,07,26,12,53,23.60
2006,07,26,12,54,23.60
2006,07,26,12,55,23.50
2006,07,26,12,56,23.60
2006,07,26,12,57,23.60
2006,07,26,12,58,23.70
2006,07,26,12,59,23.70
2006,07,26,13,00,23.60
2006,07,26,13,01,23.50
2006,07,26,13,02,23.30
2006,07,26,13,03,23.30
2006,07,26,13,04,23.40
2006,07,26,13,05,23.50
2006,07,26,13,06,23.50
2006,07,26,13,07,23.40
2006,07,26,13,08,23.40
2006,07,26,13,09,23.40
2006,07,26,13,10,23.40
2006,07,26,13,11,23.30
2006,07,26,13,12,23.30
2006,07,26,13,13,23.30
2006,07,26,13,14,23.40
2006,07,26,13,15,23.40
2006,07,26,13,16,23.40
2006,07,26,13,17,23.50
2006,07,26,13,18,23.60
2006,07,26,13,19,23.70
2006,07,26,13,20,23.70
2006,07,26,13,21,23.70
2006,07,26,13,22,23.70
2006,07,26,13,23,23.70
2006,07,26,13,24,23.70
2006,07,26,13,25,23.70
2006,07,26,13,26,23.80
2006,07,26,13,27,23.90
2006,07,26,13,28,24.00
2006,07,26,13,29,23.90
2006,07,26,13,30,23.80
2006,07,26,13,31,23.60
2006,07,26,13,32,23.40
2006,07,26,13,33,23.20
2006,07,26,13,34,23.20
2006,07,26,13,35,23.20
2006,07,26,13,36,23.20
2006,07,26,13,37,23.10
2006,07,26,13,38,23.10
2006,07,26,13,39,23.20
2006,07,26,13,40,23.20
2006,07,26,13,41,23.30
2006,07,26,13,42,23.30
2006,07,26,13,43,23.20
2006,07,26,13,44,23.10
2006,07,26,13,45,22.90
2006,07,26,13,46,22.90
2006,07,26,13,47,22.90
2006,07,26,13,48,23.00
2006,07,26,13,49,23.10
2006,07,26,13,50,23.10
2006,07,26,13,51,23.30
2006,07,26,13,52,23.50
2006,07,26,13,53,23.70
2006,07,26,13,54,23.80
2006,07,26,13,55,23.90
2006,07,26,13,56,24.00
2006,07,26,13,57,24.10
2006,07,26,13,58,24.10
2006,07,26,13,59,24.10
2006,07,26,14,00,24.00
2006,07,26,14,01,23.80
2006,07,26,14,02,23.60
2006,07,26,14,03,23.60
2006,07,26,14,04,23.50
2006,07,26,14,05,23.40
2006,07,26,14,06,23.30
2006,07,26,14,07,23.50
2006,07,26,14,08,23.70
2006,07,26,14,09,23.80
2006,07,26,14,10,24.00
2006,07,26,14,11,24.10
2006,07,26,14,12,23.90
2006,07,26,14,13,23.90
2006,07,26,14,14,24.00
2006,07,26,14,15,24.10
2006,07,26,14,16,24.20
2006,07,26,14,17,24.20
2006,07,26,14,18,24.20
2006,07,26,14,19,24.10
2006,07,26,14,20,24.00
2006,07,26,14,21,23.90
2006,07,26,14,22,23.70
2006,07,26,14,23,23.70
2006,07,26,14,24,23.60
2006,07,26,14,25,23.50
2006,07,26,14,26,23.30
2006,07,26,14,27,23.20
2006,07,26,14,28,23.30
2006,07,26,14,29,23.10
2006,07,26,14,30,23.10
2006,07,26,14,31,23.10
2006,07,26,14,32,23.10
2006,07,26,14,33,23.10
2006,07,26,14,34,23.10
2006,07,26,14,35,23.10
2006,07,26,14,36,23.10
2006,07,26,14,37,23.10
2006,07,26,14,38,23.20
2006,07,26,14,39,23.30
2006,07,26,14,40,23.40
2006,07,26,14,41,23.50
2006,07,26,14,42,23.60
2006,07,26,14,43,23.50
2006,07,26,14,44,23.40
2006,07,26,14,45,23.40
2006,07,26,14,46,23.40
2006,07,26,14,47,23.40
2006,07,26,14,48,23.30
2006,07,26,14,49,23.20
2006,07,26,14,50,23.10
2006,07,26,14,51,23.10
2006,07,26,14,52,23.00
2006,07,26,14,53,22.90
2006,07,26,14,54,22.90
2006,07,26,14,55,22.90
2006,07,26,14,56,22.90
2006,07,26,14,57,23.00
2006,07,26,14,58,23.10
2006,07,26,14,59,23.30
2006,07,26,15,00,23.30
2006,07,26,15,01,23.30
2006,07,26,15,02,23.30
2006,07,26,15,03,23.10
2006,07,26,15,04,23.00
2006,07,26,15,05,22.90
2006,07,26,15,06,22.90
2006,07,26,15,07,22.90
2006,07,26,15,08,22.90
2006,07,26,15,09,22.90
2006,07,26,15,10,22.90
2006,07,26,15,11,22.90
2006,07,26,15,12,22.90
2006,07,26,15,13,22.90
2006,07,26,15,14,22.90
2006,07,26,15,15,23.00
2006,07,26,15,16,22.90
2006,07,26,15,17,22.90
2006,07,26,15,18,22.90
2006,07,26,15,19,22.90
2006,07,26,15,20,22.90
2006,07,26,15,21,22.90
2006,07,26,15,22,22.90
2006,07,26,15,23,22.80
2006,07,26,15,24,22.80
2006,07,26,15,25,22.80
2006,07,26,15,26,22.70
2006,07,26,15,27,22.50
2006,07,26,15,28,22.40
2006,07,26,15,29,22.50
2006,07,26,15,30,22.50
2006,07,26,15,31,22.50
2006,07,26,15,32,22.50
2006,07,26,15,33,22.50
2006,07,26,15,34,22.60
2006,07,26,15,35,22.60
2006,07,26,15,36,22.70
2006,07,26,15,37,22.80
2006,07,26,15,38,22.90
2006,07,26,15,39,22.90
2006,07,26,15,40,22.90
2006,07,26,15,41,22.90
2006,07,26,15,42,22.90
2006,07,26,15,43,22.90
2006,07,26,15,44,23.10
2006,07,26,15,45,23.20
2006,07,26,15,46,23.30
2006,07,26,15,47,23.30
2006,07,26,15,48,23.30
2006,07,26,15,49,23.30
2006,07,26,15,50,23.20
2006,07,26,15,51,23.20
2006,07,26,15,52,23.10
2006,07,26,15,53,23.10
2006,07,26,15,54,23.10
2006,07,26,15,55,23.20
2006,07,26,15,56,23.40
2006,07,26,15,57,23.60
2006,07,26,15,58,23.80
2006,07,26,15,59,23.80
2006,07,26,16,00,23.90
2006,07,26,16,01,24.10
2006,07,26,16,02,24.10
2006,07,26,16,03,24.40
2006,07,26,16,04,24.40
2006,07,26,16,05,24.50
2006,07,26,16,06,24.50
2006,07,26,16,07,24.40
2006,07,26,16,08,24.20
2006,07,26,16,09,24.10
2006,07,26,16,10,24.10
2006,07,26,16,11,24.20
2006,07,26,16,12,24.30
2006,07,26,16,13,24.40
2006,07,26,16,14,24.40
2006,07,26,16,15,24.50
2006,07,26,16,16,24.50
2006,07,26,16,17,24.60
2006,07,26,16,18,24.70
2006,07,26,16,19,24.70
2006,07,26,16,20,24.80
2006,07,26,16,21,24.90
2006,07,26,16,22,25.10
2006,07,26,16,23,25.20
2006,07,26,16,24,25.20
2006,07,26,16,25,25.30
2006,07,26,16,26,25.40
2006,07,26,16,27,25.50
2006,07,26,16,28,25.50
2006,07,26,16,29,25.60
2006,07,26,16,30,25.50
2006,07,26,16,31,25.40
2006,07,26,16,32,25.40
2006,07,26,16,33,25.40
2006,07,26,16,34,25.50
2006,07,26,16,35,25.40
2006,07,26,16,36,25.40
2006,07,26,16,37,25.30
2006,07,26,16,38,25.30
2006,07,26,16,39,25.30
2006,07,26,16,40,25.30
2006,07,26,16,41,25.30
2006,07,26,16,42,25.30
2006,07,26,16,43,25.40
2006,07,26,16,44,25.50
2006,07,26,16,45,25.50
2006,07,26,16,46,25.50
2006,07,26,16,47,25.50
2006,07,26,16,48,25.50
2006,07,26,16,49,25.60
2006,07,26,16,50,25.50
2006,07,26,16,51,25.40
2006,07,26,16,52,25.40
2006,07,26,16,53,25.40
2006,07,26,16,54,25.50
2006,07,26,16,55,25.60
2006,07,26,16,56,25.60
2006,07,26,16,57,25.60
2006,07,26,16,58,25.60
2006,07,26,16,59,25.60
2006,07,26,17,00,25.70
2006,07,26,17,01,25.70
2006,07,26,17,02,25.60
2006,07,26,17,03,25.60
2006,07,26,17,04,25.60
2006,07,26,17,05,25.60
2006,07,26,17,06,25.60
2006,07,26,17,07,25.70
2006,07,26,17,08,25.60
2006,07,26,17,09,25.60
2006,07,26,17,10,25.60
2006,07,26,17,11,25.60
2006,07,26,17,12,25.60
2006,07,26,17,13,25.70
2006,07,26,17,14,25.70
2006,07,26,17,15,25.70
2006,07,26,17,16,25.80
2006,07,26,17,17,25.90
2006,07,26,17,18,25.90
2006,07,26,17,19,26.00